Location: North Evanston
(42.0634°N, 87.6976°W)
Time: 13:59:41
(UTC+00:00)

Vanguard 3 - Pass Details

Date: 16 May 2026
Orbit: 507 x 3204 km, 33.3° (Epoch: 6 June)

Event Time Altitude Azimuth Distance (km) Brightness Sun altitude
Rises 19:20:53 0° 240° (WSW) 6,470 12.2 59.8°
Reaches altitude 10° 19:24:55 10° 236° (WSW) 5,694 12.1 59.2°
Maximum altitude 19:42:58 58° 164° (SSE) 3,546 11.4 56.5°
Drops below altitude 10° 20:00:16 10° 92° (E) 5,493 11.2 53.8°
Sets 20:04:03 0° 89° (E) 6,241 11.3 53.2°
